Date,TemperatureHighF,TemperatureAvgF,TemperatureLowF,DewpointHighF,DewpointAvgF,DewpointLowF,HumidityHigh,HumidityAvg,HumidityLow,PressureMaxIn,PressureMinIn,WindSpeedMaxMPH,WindSpeedAvgMPH,GustSpeedMaxMPH,PrecipitationSumIn
2014-1-1,1,-3,-8,-6,-10,-15,77,71,67,30.61,30.51,9,1,9,0.00
2014-1-2,2,-5,-12,-8,-14,-18,74,66,48,30.62,30.50,5,1,5,0.00
2014-1-3,27,10,-12,23,4,-18,86,75,66,30.49,29.51,33,12,33,0.00
2014-1-4,34,15,-3,30,8,-10,88,73,61,30.34,29.49,26,8,26,0.00
2014-1-5,-3,-10,-20,-10,-19,-29,75,66,59,30.50,30.34,21,8,21,0.00
2014-1-6,-13,-18,-23,-22,-26,-31,74,68,64,30.47,30.34,21,11,21,0.00
2014-1-7,4,-6,-16,-7,-13,-22,86,69,58,30.40,30.27,12,2,12,0.00
2014-1-8,2,-6,-11,-8,-12,-16,78,72,59,30.60,30.39,4,0,4,0.00
2014-1-9,22,10,-11,13,3,-16,86,74,61,30.57,29.99,26,9,26,0.00
2014-1-10,30,25,16,27,22,12,92,89,86,29.99,29.53,17,5,17,0.00
2014-1-11,29,26,22,27,23,19,92,88,78,29.74,29.52,20,7,20,0.00
2014-1-12,39,34,22,30,27,19,88,76,68,29.68,29.39,22,5,23,0.00
2014-1-13,34,28,26,29,22,16,89,78,66,29.72,29.53,24,7,24,0.00
2014-1-14,28,19,6,25,13,0,91,80,65,30.20,29.51,21,8,21,0.00
2014-1-15,29,10,-1,24,5,-6,89,78,71,30.24,29.50,28,8,28,0.00
2014-1-16,34,18,5,30,11,-3,89,73,58,29.96,29.44,34,14,34,0.01
2014-1-17,12,5,-1,4,-2,-7,92,73,62,30.15,29.87,18,6,18,0.00
2014-1-18,21,15,10,16,11,4,92,84,72,30.05,29.61,26,8,26,0.00
2014-1-19,37,30,15,28,23,11,85,77,68,29.81,29.49,25,9,25,0.02
2014-1-20,29,14,-5,24,7,-15,86,72,52,30.52,29.76,18,7,18,0.00
2014-1-21,6,-6,-16,2,-13,-22,89,70,59,30.58,30.11,16,3,16,0.00
2014-1-22,7,1,-10,3,-6,-18,82,70,58,30.62,30.07,30,11,30,0.00
2014-1-23,4,-10,-18,-5,-17,-24,78,71,64,30.88,30.33,22,7,22,0.00
2014-1-24,33,23,4,30,16,-5,92,73,53,30.32,29.56,29,13,29,0.00
2014-1-25,27,7,2,8,-6,-10,83,58,41,30.00,29.61,26,9,26,0.00
2014-1-26,16,6,-9,11,0,-17,92,76,63,30.20,29.47,41,12,41,0.00
2014-1-27,-7,-12,-16,-16,-21,-25,83,65,59,30.57,30.20,20,11,20,0.00
2014-1-28,0,-8,-16,-10,-15,-22,76,70,62,30.54,30.24,21,10,21,0.00
2014-1-29,32,14,-7,18,3,-13,82,62,47,30.24,29.62,26,7,26,0.00
2014-1-30,29,15,-4,23,8,-12,92,75,60,30.15,29.50,23,7,23,0.00
2014-1-31,8,-1,-11,-3,-9,-16,78,70,58,30.27,30.13,16,3,16,0.00
2014-2-1,19,10,-2,11,2,-9,76,71,63,30.32,30.01,20,6,20,0.00
2014-2-2,12,2,-9,1,-5,-14,84,73,60,30.41,30.31,15,2,15,0.00
2014-2-3,16,8,2,6,1,-2,83,74,62,30.47,30.27,13,2,13,0.00
2014-2-4,8,4,0,1,-4,-9,83,71,59,30.57,30.47,12,3,12,0.00
2014-2-5,3,-1,-7,-4,-9,-13,76,69,62,30.65,30.56,14,5,14,0.00
2014-2-6,4,-4,-13,-6,-11,-18,79,73,63,30.61,30.36,23,8,23,0.00
2014-2-7,12,2,-7,2,-6,-13,85,67,52,30.36,30.26,24,8,24,0.00
2014-2-8,18,8,-4,8,2,-8,81,76,65,30.26,30.17,10,1,10,0.00
2014-2-9,9,0,-8,4,-8,-14,89,70,58,30.52,30.26,20,5,20,0.00
2014-2-10,3,-6,-13,-7,-13,-18,78,71,61,30.62,30.53,12,2,12,0.00
2014-2-11,14,2,-15,7,-6,-20,80,71,57,30.60,30.16,30,8,30,0.00
2014-2-12,23,18,14,16,13,6,86,80,71,30.19,29.86,21,3,21,0.02
2014-2-13,30,16,3,24,10,-3,87,78,71,29.87,29.50,33,12,33,0.01
2014-2-14,13,5,0,3,-2,-5,80,73,61,30.16,29.83,12,2,12,0.00
2014-2-15,18,10,-2,14,5,-6,87,80,66,30.14,29.86,21,4,21,0.00
2014-2-16,21,15,6,13,8,3,85,74,66,30.32,30.03,32,6,32,0.00
2014-2-17,29,23,19,26,19,13,92,85,70,30.05,29.72,39,8,39,0.00
2014-2-18,39,32,20,29,24,17,92,73,59,29.82,29.60,13,4,13,0.01
2014-2-19,41,32,20,30,25,17,98,78,63,29.88,29.71,20,5,20,0.00
2014-2-20,37,32,14,32,28,11,93,86,73,29.71,29.32,24,5,24,0.08
2014-2-21,15,11,5,12,7,1,95,85,78,29.87,29.38,27,14,27,0.00
2014-2-22,13,8,2,7,3,-2,80,77,72,30.25,29.87,23,10,23,0.00
2014-2-23,16,8,1,7,1,-4,79,73,66,30.38,30.25,22,9,22,0.00
2014-2-24,10,4,-4,3,-3,-9,91,73,61,30.45,30.38,15,4,15,0.00
2014-2-25,5,-2,-8,-1,-10,-17,80,70,61,30.49,30.38,20,9,20,0.00
2014-2-26,19,2,-12,9,-7,-18,78,67,51,30.49,29.75,33,14,33,0.00
2014-2-27,-1,-8,-14,-13,-20,-24,68,53,44,30.32,30.04,23,4,23,0.00
2014-2-28,14,4,-10,8,-4,-20,82,69,59,30.28,30.01,17,4,17,0.00
2014-3-1,6,-2,-8,-2,-13,-19,72,60,49,30.66,30.28,16,6,16,0.00
2014-3-2,1,-7,-16,-11,-18,-25,69,60,54,30.71,30.62,16,4,16,0.00
2014-3-3,10,0,-12,0,-8,-18,78,68,52,30.68,30.35,13,2,13,0.00
2014-3-4,18,12,6,10,6,0,81,73,62,30.39,30.25,12,1,12,0.00
2014-3-5,23,17,11,11,9,6,84,71,58,30.53,30.38,20,3,20,0.00
2014-3-6,26,20,12,21,14,5,83,78,73,30.42,29.87,30,12,30,0.00
2014-3-7,33,28,23,29,23,16,86,80,69,30.24,29.82,20,5,20,0.01
2014-3-8,27,20,15,16,13,10,82,73,59,30.39,30.24,12,3,12,0.00
2014-3-9,44,32,15,33,24,10,83,73,61,30.24,29.70,25,8,25,0.00
2014-3-10,51,43,37,37,34,32,83,72,55,29.73,29.64,16,4,16,0.00
2014-3-11,45,38,30,34,27,18,87,66,44,30.04,29.72,18,5,18,0.06
2014-3-12,30,23,17,20,12,8,76,63,51,30.18,30.04,18,5,18,0.00
2014-3-13,52,38,18,38,29,12,85,70,55,30.09,29.55,20,5,20,0.00
2014-3-14,43,37,27,34,28,17,80,71,58,30.00,29.54,29,10,29,0.00
2014-3-15,30,25,20,17,13,6,78,61,44,30.46,30.00,12,2,12,0.00
2014-3-16,26,19,10,13,6,-2,68,56,47,30.55,30.08,20,3,20,0.00
2014-3-17,39,29,22,27,21,14,82,72,61,30.08,29.61,26,10,26,0.04
2014-3-18,35,32,28,28,24,22,92,74,63,29.84,29.65,15,3,15,0.01
2014-3-19,36,30,25,27,24,22,92,80,64,30.03,29.82,21,8,21,0.12
2014-3-20,46,34,23,32,27,20,91,77,49,30.07,29.93,16,2,16,0.00
2014-3-21,44,34,22,35,27,12,81,74,65,30.20,29.76,27,8,27,0.00
2014-3-22,21,15,7,12,4,-1,74,63,51,30.60,30.20,22,9,22,0.00
2014-3-23,25,16,7,12,6,0,76,65,50,30.61,30.43,18,2,18,0.00
2014-3-24,31,23,17,25,15,8,88,71,46,30.44,30.17,21,4,21,0.02
2014-3-25,22,16,9,17,4,-3,82,58,47,30.38,30.18,23,7,23,0.00
2014-3-26,41,28,11,27,16,6,80,64,50,30.24,29.62,33,12,33,0.00
2014-3-27,41,36,30,37,33,26,92,88,58,29.77,29.47,22,6,22,0.40
2014-3-28,38,32,27,26,21,16,84,64,47,30.30,29.78,20,5,20,0.00
2014-3-29,44,33,20,28,19,12,76,56,36,30.34,30.10,17,4,17,0.00
2014-3-30,63,48,37,46,36,28,72,63,49,30.09,29.75,28,9,28,0.00
2014-3-31,59,48,30,49,39,26,88,71,57,29.75,29.33,33,12,33,0.03
2014-4-1,35,27,19,29,21,14,91,77,66,30.18,29.42,26,11,26,0.00
2014-4-2,43,32,20,24,20,15,83,63,45,30.25,30.09,15,4,15,0.00
2014-4-3,38,33,28,30,27,22,92,79,54,30.10,29.80,20,6,20,0.01
2014-4-4,40,31,25,29,26,22,92,81,54,30.10,29.73,28,11,28,0.39
2014-4-5,50,37,23,38,29,20,91,75,60,30.17,29.98,20,5,20,0.03
2014-4-6,62,50,41,45,37,30,79,61,47,29.98,29.81,24,8,24,0.00
2014-4-7,58,49,40,43,38,30,91,68,40,29.85,29.75,22,5,22,0.00
2014-4-8,51,42,34,33,29,25,73,60,42,30.02,29.83,20,7,20,0.00
2014-4-9,71,53,33,44,35,26,80,53,35,30.00,29.50,28,8,28,0.00
2014-4-10,63,53,45,44,30,21,62,43,26,29.94,29.52,32,11,32,0.00
2014-4-11,64,52,41,38,33,29,69,50,33,29.97,29.90,15,2,15,0.00
2014-4-12,56,50,44,46,40,32,84,69,45,29.92,29.68,21,6,21,0.04
2014-4-13,45,40,34,41,33,22,87,77,62,29.94,29.73,23,8,23,0.00
2014-4-14,36,30,25,22,13,6,68,50,31,30.17,29.94,30,11,30,0.01
2014-4-15,39,28,18,17,9,2,68,47,27,30.23,30.09,13,3,13,0.00
2014-4-16,39,34,29,31,24,17,92,69,51,30.09,29.89,29,10,29,0.51
2014-4-17,42,32,28,30,26,24,92,79,56,30.37,29.99,17,6,17,0.10
2014-4-18,50,40,26,32,28,23,90,65,46,30.41,30.20,28,5,28,0.01
2014-4-19,68,53,43,53,40,29,88,62,45,30.20,29.96,44,12,44,0.06
2014-4-20,74,61,49,54,49,39,92,67,32,30.05,29.90,14,2,14,0.07
2014-4-21,66,58,46,55,44,29,92,62,37,30.07,29.84,25,10,25,0.17
2014-4-22,58,48,38,34,30,27,75,52,34,30.15,30.05,17,5,17,0.00
2014-4-23,48,42,39,36,32,25,86,67,45,30.11,29.91,21,9,21,0.30
2014-4-24,46,42,39,42,38,36,92,87,78,29.93,29.69,26,5,26,0.83
2014-4-25,64,49,37,44,39,34,92,72,39,29.83,29.73,21,7,21,0.01
2014-4-26,53,46,38,39,33,29,75,60,45,30.03,29.87,26,8,26,0.09
2014-4-27,47,41,38,38,36,33,90,83,65,29.91,29.55,38,18,38,1.87
2014-4-28,44,42,40,40,38,37,90,86,79,29.69,29.59,34,17,34,0.94
2014-4-29,42,36,33,37,33,31,91,89,78,29.79,29.65,20,7,20,0.51
2014-4-30,44,39,34,39,36,32,92,87,76,29.79,29.76,17,7,17,0.03
2014-5-1,48,42,37,39,37,34,91,81,69,29.86,29.73,17,9,17,0.02
2014-5-2,60,50,40,45,40,35,91,70,49,29.86,29.60,29,5,29,0.00
2014-5-3,58,50,43,40,35,31,70,56,38,29.97,29.71,23,9,23,0.00
2014-5-4,58,48,36,33,29,25,72,50,31,30.14,29.97,15,4,15,0.00
2014-5-5,65,56,49,37,34,30,54,43,33,30.00,29.90,16,4,16,0.00
2014-5-6,64,56,46,40,37,34,66,50,35,29.97,29.76,27,11,27,0.00
2014-5-7,64,58,51,50,44,37,82,61,52,29.78,29.61,22,10,22,0.09
2014-5-8,71,57,51,59,52,48,93,85,64,29.78,29.50,33,5,33,0.90
2014-5-9,59,51,46,57,44,38,93,78,53,29.82,29.49,29,12,29,0.01
2014-5-10,71,55,42,53,44,36,89,69,41,29.89,29.76,23,5,23,0.11
2014-5-11,69,59,48,57,52,46,93,80,59,29.89,29.72,17,2,17,0.46
2014-5-12,61,56,48,59,53,45,93,92,89,29.81,29.64,23,4,23,0.77
2014-5-13,52,48,44,45,39,33,89,72,52,30.20,29.81,27,12,27,0.01
2014-5-14,59,49,38,38,33,28,85,56,35,30.24,30.14,15,6,15,0.00
2014-5-15,49,44,39,32,30,27,71,58,45,30.19,30.12,17,7,17,0.00
2014-5-16,53,46,39,33,28,23,76,51,33,30.14,30.06,18,3,18,0.00
2014-5-17,66,54,40,36,31,28,65,45,26,30.08,29.99,21,7,21,0.00
2014-5-18,74,62,48,43,37,31,60,42,28,30.08,29.95,24,7,24,0.00
2014-5-19,62,54,51,52,47,39,92,77,43,29.99,29.74,28,10,28,0.87
2014-5-20,66,54,50,58,52,48,94,90,76,29.88,29.74,7,0,7,0.00
2014-5-21,63,57,53,47,45,44,74,65,56,30.12,30.05,13,1,13,0.00
2014-5-22,70,59,46,48,44,40,89,60,38,30.20,30.12,13,2,13,0.00
2014-5-23,81,65,48,49,46,43,91,55,30,30.23,30.08,13,1,13,0.00
2014-5-24,83,71,61,52,47,43,56,44,29,30.13,29.99,16,3,16,0.00
2014-5-25,81,71,58,62,55,44,75,58,44,30.03,29.86,22,4,22,0.00
2014-5-26,85,73,65,66,64,61,89,74,49,29.89,29.81,20,3,20,0.00
2014-5-27,72,67,62,66,63,58,93,87,75,29.96,29.83,15,2,15,0.13
2014-5-28,83,69,56,62,57,53,91,67,41,30.05,29.95,14,2,14,0.00
2014-5-29,85,72,55,56,50,45,83,48,25,30.10,30.00,14,3,14,0.00
2014-5-30,89,78,66,65,59,46,72,53,41,30.09,29.96,15,3,15,0.00
2014-5-31,88,75,67,69,63,54,92,68,47,30.02,29.83,24,4,24,0.80
2014-6-1,70,66,64,65,63,61,93,90,80,29.88,29.69,13,2,15,2.47
2014-6-2,79,68,61,65,60,51,94,77,54,29.83,29.64,32,10,32,0.06
2014-6-3,76,66,55,58,54,50,88,67,45,29.97,29.81,21,4,21,0.00
2014-6-4,84,71,58,58,55,52,88,59,35,29.86,29.79,12,1,12,0.00
2014-6-5,78,68,62,60,58,55,87,71,46,29.89,29.78,20,4,20,0.05
2014-6-6,90,72,59,66,59,53,90,67,31,29.93,29.85,18,1,18,0.00
2014-6-7,68,58,52,60,54,50,92,87,74,30.07,29.86,20,2,20,0.74
2014-6-8,74,62,49,56,47,39,94,63,31,30.14,30.03,12,0,12,0.01
2014-6-9,72,63,58,54,51,44,83,65,48,30.04,29.95,7,0,7,0.02
2014-6-10,78,67,54,58,54,50,91,65,42,29.95,29.82,15,2,15,0.00
2014-6-11,85,73,61,61,56,54,87,59,40,29.85,29.59,29,2,29,0.07
2014-6-12,65,59,56,62,50,45,91,71,55,29.97,29.62,26,10,26,0.19
2014-6-13,78,65,50,50,47,43,83,54,33,30.04,29.86,13,3,13,0.00
2014-6-14,66,61,57,56,53,48,89,74,52,29.92,29.65,40,8,40,1.46
2014-6-15,76,66,57,61,57,54,92,75,49,29.81,29.42,34,11,34,1.27
2014-6-16,85,70,61,67,59,54,90,70,45,29.87,29.60,32,7,32,0.52
2014-6-17,85,73,62,68,63,57,88,72,49,29.81,29.64,12,2,12,0.02
2014-6-18,81,74,67,68,66,64,92,77,59,29.87,29.72,21,6,21,0.03
2014-6-19,74,68,64,66,64,62,93,87,75,30.02,29.78,28,8,28,4.24
2014-6-20,87,75,66,68,64,58,94,72,40,29.93,29.78,13,2,13,0.00
2014-6-21,88,76,65,65,61,57,91,63,37,29.88,29.78,7,1,7,0.00
2014-6-22,78,71,64,69,63,58,90,75,60,29.86,29.76,14,1,14,0.07
2014-6-23,82,73,65,68,63,58,94,73,51,29.85,29.77,18,2,18,0.01
2014-6-24,84,73,63,65,61,58,89,67,43,29.91,29.84,15,2,15,0.00
2014-6-25,74,64,57,62,57,54,91,79,61,30.03,29.91,9,1,9,0.00
2014-6-26,81,70,58,69,63,55,92,79,65,30.03,29.84,18,6,18,0.00
2014-6-27,81,74,69,69,67,64,88,79,65,29.86,29.72,29,8,29,0.00
2014-6-28,82,74,68,76,69,64,92,84,71,29.75,29.61,32,9,32,1.08
2014-6-29,85,74,63,69,64,59,92,73,43,29.73,29.64,23,7,23,0.08
2014-6-30,79,71,63,67,60,52,86,70,47,29.68,29.50,26,5,26,0.07
2014-7-1,73,64,57,60,56,49,86,74,61,29.82,29.50,21,11,21,0.04
2014-7-2,73,62,54,52,49,45,90,64,38,30.08,29.82,17,6,17,0.01
2014-7-3,80,68,57,54,50,43,81,56,33,30.18,30.08,10,1,10,0.00
2014-7-4,80,70,58,58,54,49,78,58,40,30.25,30.06,26,5,26,0.00
2014-7-5,84,74,66,68,63,56,81,68,57,30.09,29.83,24,8,24,0.00
2014-7-6,88,77,68,74,67,61,94,75,43,29.84,29.64,21,8,21,0.10
2014-7-7,86,73,63,70,63,59,92,72,49,29.74,29.57,26,4,26,0.37
2014-7-8,74,68,61,62,56,52,87,67,48,29.89,29.62,23,8,23,0.01
2014-7-9,83,69,56,58,54,52,88,62,38,29.99,29.89,10,1,10,0.00
2014-7-10,86,74,61,66,60,55,84,64,45,30.02,29.92,21,3,21,0.00
2014-7-11,81,73,64,72,65,60,92,78,62,29.98,29.89,28,6,28,2.57
2014-7-12,77,71,66,70,67,63,93,87,68,29.99,29.88,20,2,20,0.51
2014-7-13,77,69,62,63,55,48,92,64,43,29.95,29.85,22,5,22,0.01
2014-7-14,65,60,56,54,50,45,88,70,56,30.04,29.85,29,9,29,0.13
2014-7-15,71,62,55,54,51,48,84,68,49,30.08,30.00,16,4,16,0.00
2014-7-16,78,65,53,57,52,48,91,65,37,30.05,29.99,10,0,10,0.00
2014-7-17,82,69,56,59,55,52,87,63,41,30.03,29.97,14,2,14,0.00
2014-7-18,79,70,61,62,58,54,80,66,53,30.02,29.91,24,6,24,0.00
2014-7-19,79,72,66,64,62,59,79,70,58,29.92,29.85,18,5,18,0.03
2014-7-20,86,77,70,69,66,63,81,68,52,29.85,29.76,26,7,26,0.00
2014-7-21,90,81,74,77,72,66,84,73,65,29.86,29.73,21,6,21,0.00
2014-7-22,82,77,69,76,65,56,89,68,46,30.12,29.73,20,7,20,0.00
2014-7-23,82,71,60,59,56,50,85,60,37,30.23,30.11,12,2,12,0.00
2014-7-24,83,71,61,63,59,56,89,67,44,30.13,29.79,28,2,28,0.00
2014-7-25,82,72,63,70,65,58,92,78,64,29.90,29.71,20,4,20,1.00
2014-7-26,85,77,69,72,67,59,93,73,49,29.80,29.73,21,4,21,0.00
2014-7-27,76,69,63,62,58,55,79,69,54,30.09,29.75,23,9,23,0.00
2014-7-28,75,68,63,59,56,52,85,67,48,30.18,30.09,13,2,13,0.00
2014-7-29,78,69,59,60,57,54,87,67,48,30.12,30.01,20,4,20,0.00
2014-7-30,79,70,60,62,58,55,86,67,47,30.07,30.00,14,3,14,0.00
2014-7-31,82,71,58,62,58,55,89,65,43,30.02,29.96,14,2,14,0.00
2014-8-1,86,73,60,65,61,57,88,68,41,30.04,29.98,12,1,12,0.00
2014-8-2,88,74,63,66,62,60,89,69,41,30.09,30.03,12,1,12,0.00
2014-8-3,89,76,64,68,64,61,91,69,44,30.09,29.98,12,1,12,0.00
2014-8-4,80,73,66,68,64,59,91,75,58,30.03,29.98,12,1,12,0.00
2014-8-5,80,70,60,64,61,58,92,74,49,30.09,30.02,12,1,12,0.00
2014-8-6,82,72,60,65,61,58,93,71,49,30.07,29.99,12,1,12,0.00
2014-8-7,82,73,62,64,61,58,90,68,45,30.05,29.97,17,2,17,0.00
2014-8-8,83,73,66,65,61,57,82,67,44,30.07,30.00,13,1,13,0.00
2014-8-9,79,73,67,64,61,59,80,68,55,30.08,30.01,12,2,12,0.00
2014-8-10,84,74,67,67,64,60,89,71,50,30.04,29.92,13,2,13,0.00
2014-8-11,76,69,62,66,61,55,93,77,50,30.02,29.88,21,6,21,0.04
2014-8-12,78,68,57,58,55,49,93,67,39,30.06,29.98,17,4,17,0.00
2014-8-13,85,72,59,64,58,54,85,64,44,30.06,30.00,13,2,13,0.00
2014-8-14,81,70,60,61,56,50,73,62,46,30.11,29.95,16,2,16,0.00
2014-8-15,85,74,65,67,63,57,85,70,53,29.98,29.83,17,2,17,0.00
2014-8-16,88,74,65,71,67,63,92,80,56,29.87,29.80,10,1,10,0.00
2014-8-17,84,72,68,72,68,65,93,87,66,29.93,29.80,14,2,14,2.13
2014-8-18,86,74,66,71,66,62,94,81,50,29.81,29.60,20,4,20,0.02
2014-8-19,81,70,63,68,64,60,93,82,58,29.76,29.62,12,2,12,0.05
2014-8-20,86,73,64,69,66,62,94,79,56,29.84,29.75,12,2,12,0.01
2014-8-21,88,77,69,75,71,66,93,81,64,29.83,29.70,20,3,20,0.13
2014-8-22,79,73,68,71,68,65,94,86,74,29.98,29.80,6,0,6,0.00
2014-8-23,77,71,67,71,68,64,93,89,79,29.97,29.85,16,3,16,0.01
2014-8-24,90,78,72,77,72,68,91,82,63,29.86,29.74,22,6,22,0.14
2014-8-25,77,71,64,68,61,54,93,73,50,30.04,29.81,17,4,17,0.00
2014-8-26,74,64,55,60,53,48,89,69,47,30.20,30.04,12,2,12,0.01
2014-8-27,79,68,58,60,57,55,88,70,48,30.22,30.08,12,1,12,0.00
2014-8-28,69,65,60,64,61,57,90,86,75,30.10,29.86,18,4,18,0.04
2014-8-29,82,72,66,72,67,63,94,85,69,29.86,29.68,16,2,16,0.38
2014-8-30,78,70,66,67,64,62,94,83,63,29.82,29.71,10,2,10,0.38
2014-8-31,78,78,78,64,64,64,63,63,63,29.80,29.80,0,0,0,0.38
2014-9-1,78,68,63,65,61,56,93,78,53,29.80,29.58,20,3,20,0.17
2014-9-2,78,69,59,60,57,53,87,66,42,29.88,29.78,14,4,14,0.00
2014-9-3,80,69,62,72,64,57,92,82,67,29.88,29.63,17,4,17,0.17
2014-9-4,87,77,67,76,70,57,90,80,66,29.86,29.55,28,5,28,0.01
2014-9-5,67,60,54,57,51,48,81,72,60,30.18,29.85,18,6,18,0.00
2014-9-6,77,62,50,58,51,46,89,70,44,30.21,30.12,16,3,16,0.00
2014-9-7,77,65,54,54,51,49,83,64,39,30.15,29.99,18,3,18,0.00
2014-9-8,75,65,58,60,55,51,80,71,56,29.99,29.81,24,6,24,0.00
2014-9-9,76,67,60,68,62,57,92,85,74,29.84,29.68,14,2,14,0.05
2014-9-10,66,53,46,64,49,40,93,86,77,30.11,29.61,23,9,23,0.07
2014-9-11,57,49,42,41,39,35,87,69,46,30.40,30.12,14,2,14,0.00
2014-9-12,54,47,42,42,38,31,88,72,43,30.45,30.37,17,3,17,0.00
2014-9-13,62,50,36,42,38,34,92,67,39,30.38,30.16,17,3,17,0.01
2014-9-14,64,56,48,46,43,38,82,63,41,30.16,30.09,20,6,20,0.00
2014-9-15,61,53,45,48,44,37,91,73,43,30.22,30.12,13,2,13,0.08
2014-9-16,69,55,42,48,44,38,90,68,43,30.22,30.00,16,2,16,0.00
2014-9-17,76,64,55,58,52,47,89,67,47,30.00,29.91,12,1,12,0.00
2014-9-18,76,61,48,58,52,46,92,75,48,30.08,29.96,15,2,15,0.00
2014-9-19,83,68,57,67,59,52,85,76,58,29.97,29.61,26,6,26,0.00
2014-9-20,76,66,57,67,58,51,91,78,49,29.85,29.64,51,7,51,0.29
2014-9-21,65,58,52,52,49,46,87,73,53,30.23,29.83,20,8,20,0.00
2014-9-22,74,59,46,54,50,44,93,74,46,30.28,30.14,12,2,12,0.01
2014-9-23,75,64,52,56,52,48,84,67,48,30.21,30.10,15,4,15,0.00
2014-9-24,65,62,58,56,53,51,84,75,69,30.16,30.09,26,6,26,0.02
2014-9-25,78,67,58,63,58,54,89,76,58,30.19,30.12,13,1,13,0.00
2014-9-26,81,69,58,61,57,53,85,68,48,30.16,30.06,17,3,17,0.00
2014-9-27,83,72,63,63,59,57,82,67,46,30.12,30.04,18,4,18,0.00
2014-9-28,83,71,60,63,58,56,87,66,43,30.10,29.99,12,1,12,0.00
2014-9-29,66,56,46,59,50,41,88,80,70,30.11,29.98,12,2,12,0.00